Meteo Giornale » Osservazioni meteo Italia » Monte Terminillo

ore: 08:55 - Osservazioni Meteo Monte Terminillo
Lat. 42° 28' N Lon. 12° 59' E Alt. 1874 metri s.l.m.

sereno Europe/Rome

0 °C

Sereno

Temp. 24 Ore

0 °C

0 °C

Nord/NOvest

11.1 Km/h

Dew point 0 °C

Umidità 93 %

Visibilità  0 Km

Il sole sorge alle ore 07:23

Il sole tramonta alle ore 18:22

Data e Ora Cielo e Fenomeni T °C DP °C Um. % Pres. hPa Vis. km Vento km/h
Oggi h: 08:55 sereno Sereno 0 0 93 0 0 N/NO 11.1
Oggi h: 07:55 sereno Sereno 0 0 100 0 0 NO 7.4
Oggi h: 06:55 sereno Sereno 0 0 87 0 0 O/NO 11.1
Oggi h: 05:55 sereno Sereno 0 0 93 0 0 O 14.8
Oggi h: 03:55 sereno Sereno 0 0 93 0 0 O/NO 9.3
Oggi h: 02:55 sereno Sereno 0 0 93 0 0 N/NE 3.7
Oggi h: 01:55 sereno Sereno 0 0 88 0 0 E/NE 3.7
Oggi h: 00:55 sereno Sereno 0 0 93 0 0 E/NE 3.7
Ieri h: 22:55 sereno Sereno 0 0 93 0 0 NE 3.7
Ieri h: 21:55 sereno Sereno 0 0 100 0 0 NE 5.5
Ieri h: 20:55 sereno Sereno 0 0 87 0 0 NE 3.7
Ieri h: 19:55 sereno Sereno 0 0 72 0 0 SO 9.3
Ieri h: 18:55 sereno Sereno 0 0 88 0 0 E/NE 3.7
Ieri h: 17:55 sereno Sereno 0 0 73 0 0 O 11.1
Ieri h: 16:55 sereno Sereno 0 0 77 0 0 O 11.1
Ieri h: 15:55 sereno Sereno 0 0 73 0 0 O 9.3
Ieri h: 14:55 sereno Sereno 0 0 56 0 0 N 7.4
Ieri h: 13:55 sereno Sereno 0 0 47 0 0 O/NO 5.5
Ieri h: 12:55 sereno Sereno 0 0 43 0 0 E/NE 5.5
Ieri h: 11:55 sereno Sereno 0 0 72 0 0 SO 7.4
Ieri h: 10:55 sereno Sereno 0 0 93 0 0 SO 5.5
Ieri h: 09:55 sereno Sereno 0 0 87 0 0 O/NO 3.7